Weather History for Santa Ana, CA

Change the Weather History Date:

Friday, February 15, 2013

  Actual Average Record
Temperature  
Mean Temperature 65 °F 57 °F  
Max Temperature 84 °F 66 °F 84 °F (2013)
Min Temperature 46 °F 49 °F 41 °F (2001)
Degree Days  
Heating Degree Days 0 8  
Month to date heating degree days 147 120  
Since 1 July heating degree days 752 812  
Cooling Degree Days 0 0  
Month to date cooling degree days 0 0  
Year to date cooling degree days 0 5  
Growing Degree Days 15 (Base 50)    
Moisture  
Dew Point 31 °F    
Average Humidity 47    
Maximum Humidity 86    
Minimum Humidity 8    
Precipitation  
Precipitation 0.00 in 0.13 in 0.24 in (2012)
Month to date precipitation 0.22 1.33  
Year to date precipitation 1.53 4.24  
Since 1 July precipitation 4.55 8.61  
Snow  
Snow 0.00 in - - ()
Month to date snowfall 0.0  
Year to date snowfall 0.0  
Since 1 July snowfall 0.0  
Snow Depth 0.00 in    
Sea Level Pressure  
Sea Level Pressure 30.14 in    
Wind  
Wind Speed 6 mph (ENE)    
Max Wind Speed 20 mph    
Max Gust Speed 26 mph    
Visibility 10 miles    
Events      
T = Trace of Precipitation, MM = Missing Value Source: NWS Daily Summary

Daily Weather History Graph

Daily Weather History Graph

Search for Another Location

Airport:

Trip Planner

Search our weather history database for the weather conditions in past years. The results will help you decide how hot, cold, wet, or windy it might be!

Date:

Astronomy

Feb. 15, 2013 Rise Set
Actual Time 6:35 AM PST 5:36 PM PST
Civil Twilight 6:09 AM PST 6:01 PM PST
Nautical Twilight 5:40 AM PST 6:30 PM PST
Astronomical Twilight 5:11 AM PST 6:59 PM PST
Moon 9:33 AM PST (2/15) 11:21 PM PST (2/15)
Length of Visible Light 11h 51m
Length of Day
11h 00m
Waxing Crescent, 31% of the Moon is Illuminated
Feb 15
Waxing Crescent
Feb 17
First Quarter
Feb 25
Full
Mar 4
Last Quarter
Mar 11
New

Hourly Weather History & Observations

Time (PST) Temp. Dew Point Humidity Pressure Visibility Wind Dir Wind Speed Gust Speed Precip Events Conditions
12:53 AM 51.1 °F 44.1 °F 77% 30.14 in 8.0 mi Calm Calm - N/A   Clear
1:53 AM 48.9 °F 44.1 °F 83% 30.13 in 7.0 mi Calm Calm - N/A   Clear
2:53 AM 48.0 °F 43.0 °F 83% 30.12 in 8.0 mi Calm Calm - N/A   Clear
4:53 AM 46.9 °F 41.0 °F 80% 30.12 in 10.0 mi Calm Calm - N/A   Clear
5:53 AM 48.0 °F 39.9 °F 74% 30.12 in 10.0 mi SW 3.5 mph - N/A   Partly Cloudy
6:53 AM 48.0 °F 39.0 °F 71% 30.14 in 10.0 mi Calm Calm - N/A   Scattered Clouds
7:53 AM 63.0 °F 32.0 °F 31% 30.16 in 10.0 mi South 4.6 mph - N/A   Scattered Clouds
8:53 AM 72.0 °F 26.1 °F 18% 30.17 in 10.0 mi East 8.1 mph - N/A   Scattered Clouds
9:53 AM 75.0 °F 21.0 °F 13% 30.16 in 10.0 mi ENE 11.5 mph - N/A   Scattered Clouds
10:53 AM 78.1 °F 21.9 °F 12% 30.16 in 10.0 mi NE 9.2 mph 24.2 mph N/A   Scattered Clouds
11:53 AM 81.0 °F 21.0 °F 11% 30.14 in 10.0 mi NE 15.0 mph - N/A   Mostly Cloudy
12:53 PM 81.0 °F 21.0 °F 11% 30.12 in 10.0 mi NNE 9.2 mph 19.6 mph N/A   Mostly Cloudy
1:53 PM 84.0 °F 19.9 °F 9% 30.10 in 10.0 mi NE 13.8 mph 20.7 mph N/A   Mostly Cloudy
2:53 PM 82.0 °F 16.0 °F 8% 30.09 in 10.0 mi ENE 15.0 mph 24.2 mph N/A   Mostly Cloudy
3:53 PM 81.0 °F 17.1 °F 9% 30.11 in 10.0 mi NE 9.2 mph 20.7 mph N/A   Mostly Cloudy
4:53 PM 71.1 °F 42.1 °F 35% 30.12 in 10.0 mi SW 4.6 mph - N/A   Mostly Cloudy
5:53 PM 68.0 °F 43.0 °F 40% 30.14 in 10.0 mi Calm Calm - N/A   Mostly Cloudy
6:53 PM 66.0 °F 43.0 °F 43% 30.15 in 10.0 mi Calm Calm - N/A   Mostly Cloudy
7:53 PM 68.0 °F 28.0 °F 22% 30.16 in 10.0 mi SE 6.9 mph - N/A   Scattered Clouds
8:53 PM 69.1 °F 21.0 °F 16% 30.17 in 10.0 mi Calm Calm - N/A   Scattered Clouds
9:53 PM 61.0 °F 28.0 °F 29% 30.16 in 10.0 mi Calm Calm - N/A   Mostly Cloudy
10:53 PM 57.9 °F 30.0 °F 35% 30.15 in 10.0 mi Calm Calm - N/A   Mostly Cloudy
11:53 PM 55.9 °F 32.0 °F 40% 30.14 in 10.0 mi Calm Calm - N/A   Clear